Showing default

HUNITY-1, 66670

Orbit data source: Space-Track

HUNITY-1, 66670 is a payload satellite owned by BME (HU) in SSO that was launched on Fri, 28 Nov 2025 UTC via an FALCON 9 launch vehicle from the Air Force Western Test Range (AFWTR). Payload-class satellites include a variety of spacecraft equipped with specific instruments for various scientific and technological missions. These include communications satellites like Starlink; space stations such as the ISS; scientific satellites like the Hubble; Earth observation satellites from companies like Planet Labs, Umbra, and HawkEye 360; GPS; miniature CubeSats for education and research; and military/defense satellites.

Loading next visibility...
Identifier
66670, 2025-276E
Orbit
SSO
Country
Flag of HUHU / HUN
Related business
Manufacturer
BME
Mission
Operational Amateur Technology
Bus & Motor
POCKETQUBE 3P, Unknown motor
Mass
0.75 kg wet, 0.75 kg dry
Launch date (UTC)
2025-11-28 (6 months ago)
Launch vehicle
FALCON 9
Launch site
Air Force Western Test Range (AFWTR)
Object type
Payload
Rocket body
Debris
Shape & HBR
Box + 3 Pan, 0.2 m
Radar Cross Section
0.019 m²

Expand to show TLE details & history
Last TLE update: 8 hours ago

TLE from 8 hours ago
0 HUNITY-1
1 66670U 25276E   26144.91914010  .00024793  00000-0  97411-3 0  9999
2 66670  97.4079 219.2871 0008199 101.4047 258.8113 15.25648524 26937
Epoch: 2026-05-24T22:03Z
TLE epoch observation values (Epoch: 2026-05-24T22:03:33.704Z)
Latitude
0.00001°
Longitude
5.88228°
Altitude
493.034 km
Speed
7.618 km/s
True Right ascension
14h 37m 08s
True Declination
0° 00' 00"
Sunlit
Object was in full shadow at epoch
Visualization orbit readout
Latitude
Unknown
Longitude
Unknown
Altitude
Unknown
Speed
Unknown
Apparent Right ascension
Unknown
Apparent Declination
Unknown
Sunlit
N/A
Visualization observer readout
Local Sidereal Time
14:50:26
Azimuth
Unknown
Elevation
Unknown
Doppler factor
Unknown
Orbital elements
Apogee altitude
491.425 km
Perigee altitude
480.169 km
Semi-major axis
6,863.934 km
Eccentricity
0.00082
Inclination
97.4079°
RAAN
219.2871°
Arg. of periapsis
101.4047°
True anomaly
258.71915°
Mean anomaly
258.8113°
Eccentric anomaly
258.76522°
Mean motion
3.81666 °/min
Orbital period
94.32 mins
BSTAR
0.00097411
Loading maneuver chart data...
Computing Atmospheric mass density...
Loading historical data...
Loading historical data...
Loading historical data...
Loading historical data...
Loading historical data...
Loading historical data...
Loading historical data...

Documentation

Showing up to 5 results
|